Weather in Bogot

Uzbekistan     41°21′12″N   60°48′43″E
temp.,
°C
wind,
m/s
gust,
m/s
humid.,
%
clouds,
%
prec.,
mm/h
press.,
hPa
HPBL,
m
28 september, tue
tue2823:00+19sw22360 0.0 101614
02:00+17sw22380 0.0 101611
05:00+16sw22400 0.0 101511
08:00+18wsw11395 0.0 101639
11:00+22sw22300 0.0 10161092
14:00+24w22265 0.0 10151580
17:00+25nw22245 0.0 10141738
20:00+22nnw33325 0.0 101531
29 september, wed
wed2923:00+20nne333963 0.0 101627
02:00+17nne47430 0.0 1016141
05:00+16ne47490 0.0 1016127
08:00+16ene34460 0.0 1018141
11:00+22e22320 0.0 1018713
14:00+24nw12280 0.0 10171905
17:00+25nnw33260 0.0 10162134
20:00+22n47320 0.0 1018174
30 september, thu
thu3023:00+17nne610460 0.0 1019369
02:00+15ne69510 0.0 1019317
05:00+14ne59590 0.0 1020285
08:00+14ne69544 0.0 1021315
11:00+19ne66365 0.0 1021722
14:00+23nne44290 0.0 10191336
17:00+22nne86305 0.0 10191465
20:00+16nne911430 0.0 1022673
1 october, fri
fri123:00+13nne710570 0.0 1023421
02:00+12nne695499 0.0 1024532
05:00+12ne795058 0.0 1025590
08:00+11ne79515 0.0 1026505
11:00+14ne77345 0.0 1027997
14:00+17nne66245 0.0 10261323
17:00+17ne77225 0.0 10251417
20:00+14nne710285 0.0 1027531
2 october, sat
sat223:00+12ne712315 0.0 1028460
02:00+10ne6123431 0.0 1028386
05:00+9ne61239100 0.0 1029327
08:00+10ene6103788 0.0 1029422
11:00+14ene77265 0.0 10291041
14:00+18ne66181 0.0 10281404
17:00+18ne77160 0.0 10271471
20:00+14ne510210 0.0 1027212